Theta_e
346 344 345 341 330 330 334 338 338 336 336 338 339 340 338 337 340 341 340 343 339 340 339 329 337 342 343 332 328 332 334 336 336 336 331 329 333 336 338 344 346 343 337
347 347 345 343 339 339 341 340 336 335 335 336 337 338 338 338 338 341 344 341 332 332 329 342 337 338 331 337 330 333 338 342 337 338 347 340 326 331 334 344 347 327 328
346 345 345 343 343 343 339 334 334 334 336 336 336 340 341 344 345 343 345 331 331 328 324 339 332 330 329 331 334 334 337 337 342 344 344 349 340 329 337 334 330 334 336
351 350 349 344 342 336 333 333 333 333 331 333 343 342 342 344 345 344 329 322 334 328 324 330 340 328 330 330 337 339 338 338 339 343 347 346 348 329 338 334 332 332 334
350 351 343 337 333 332 335 336 336 338 338 343 345 344 334 329 325 322 321 319 324 325 333 331 331 341 343 343 343 343 342 338 346 347 345 337 346 340 326 334 342 332 345
350 347 332 333 339 346 341 338 338 336 338 332 325 323 322 323 327 340 341 331 329 331 338 341 342 342 340 336 338 338 339 343 348 349 344 345 342 327 332 328 339 331 326
348 346 345 339 344 345 344 343 339 335 333 332 322 321 328 333 340 325 326 332 334 332 337 339 340 341 340 337 338 340 337 340 347 345 346 344 341 330 326 328 330 325 329
344 343 341 337 344 338 338 342 344 345 346 331 326 324 327 329 330 333 333 333 332 331 331 331 334 338 340 338 335 336 339 338 349 343 344 348 341 343 339 326 326 329 327
344 342 345 344 341 336 332 334 336 342 335 334 333 333 332 332 332 332 332 332 333 333 334 333 334 333 332 331 328 328 333 338 344 347 340 347 349 343 344 343 334 325 328
346 345 347 347 350 349 335 335 335 336 336 335 340 343 345 345 345 346 348 342 342 341 342 340 338 335 332 331 332 332 330 335 345 347 346 348 346 343 343 344 344 338 326
350 348 348 348 350 350 345 338 341 338 339 340 343 349 350 352 350 352 344 343 344 344 343 342 342 341 344 349 345 343 337 344 346 345 346 346 344 341 344 343 344 344 339
350 351 348 349 350 351 347 339 348 347 352 353 354 350 352 349 345 348 348 348 350 345 348 349 348 349 349 348 349 347 348 348 346 347 348 346 345 342 340 342 342 344 343
349 348 349 349 349 350 350 347 347 348 348 350 351 350 347 350 348 350 351 349 350 348 349 349 349 349 349 349 348 348 348 347 347 345 346 347 347 345 340 339 341 341 344
348 348 348 349 349 349 351 349 347 346 347 347 346 341 346 350 351 351 352 347 347 348 349 347 348 348 349 350 348 348 348 348 347 348 347 346 347 345 342 337 336 339 339
348 349 348 349 350 349 352 351 350 347 345 346 344 346 348 349 350 351 349 347 347 343 346 347 347 346 346 344 344 343 344 347 349 349 348 347 349 348 346 343 341 338 335
349 349 349 348 350 347 350 353 353 351 347 344 342 344 350 350 352 352 349 350 345 345 345 347 348 348 345 342 341 341 340 341 344 345 348 348 349 348 348 346 342 342 339
351 351 350 350 347 344 344 347 350 348 344 344 346 350 353 354 351 350 355 347 346 347 348 348 346 345 344 343 343 342 340 339 338 341 344 345 347 346 347 348 347 343 342
352 353 352 351 350 349 348 348 346 345 346 348 348 350 354 354 356 348 350 347 349 347 346 347 347 346 346 346 342 340 340 338 337 337 336 340 344 344 346 345 346 346 344
353 354 354 353 352 352 351 349 347 348 351 350 349 350 354 352 351 350 349 349 345 346 347 349 346 346 345 344 341 339 338 337 337 336 338 339 340 342 341 342 342 345 343
353 354 355 354 354 354 353 352 351 351 351 350 351 350 355 351 350 350 350 350 347 346 347 349 350 347 341 342 341 338 335 337 339 338 337 336 333 337 337 340 342 340 342
352 354 355 355 355 354 354 353 352 350 350 350 350 352 353 352 351 352 349 349 350 349 352 349 351 344 338 336 337 336 336 335 339 339 335 338 337 339 339 338 337 339 342
351 353 355 356 356 354 354 352 351 349 349 349 349 351 354 354 354 353 353 351 351 351 351 353 350 344 338 335 338 339 337 335 337 336 338 336 338 337 337 337 337 337 337
349 352 354 356 355 354 352 353 353 352 351 351 351 352 353 355 355 354 354 354 353 350 351 350 348 343 337 336 336 340 338 335 337 338 336 335 335 334 334 333 333 332 330
348 350 353 354 353 351 342 352 351 352 351 350 351 351 351 353 354 354 354 353 353 349 346 349 345 339 335 336 337 338 338 339 338 336 333 332 331 330 329 329 328 327 326
347 348 352 355 352 349 344 345 353 352 352 351 351 351 353 354 356 355 352 344 335 336 344 343 340 340 331 338 338 338 337 336 333 332 330 329 329 328 327 326 326 327 328
347 348 350 353 350 343 348 343 349 354 353 351 352 352 353 353 354 344 348 339 341 343 341 337 337 339 337 328 327 338 334 332 330 329 329 328 327 325 325 326 327 327 327
Wind_Speed
19 18 16 16 17 19 18 17 16 17 18 16 16 15 15 15 13 11 10 11 11 11 11 12 13 10 10 11 12 13 13 13 12 13 13 12 11 12 12 12 12 5 8
21 21 20 18 18 17 16 15 15 16 16 16 15 14 12 11 9 9 9 11 10 10 13 11 11 10 11 12 12 12 13 12 13 12 13 13 10 9 10 10 13 3 7
23 22 19 17 16 15 14 13 15 15 14 13 13 13 11 10 10 10 10 10 11 11 12 11 12 12 13 13 13 13 12 12 18 15 9 9 9 7 9 7 4 7 8
18 16 16 16 15 14 14 13 12 12 11 12 12 13 12 11 11 10 8 8 10 11 11 12 12 13 14 13 13 12 12 12 13 14 9 8 3 7 5 6 7 7 7
17 17 17 16 15 13 13 12 12 12 12 12 11 11 9 8 8 9 10 11 10 11 12 13 14 13 12 10 8 7 8 12 13 11 5 5 5 6 3 5 6 6 5
20 17 19 16 15 14 12 13 13 13 12 10 9 9 9 11 12 12 11 12 12 11 11 11 10 10 10 9 9 9 8 10 11 7 3 8 3 5 4 4 5 2 1
19 17 16 16 14 13 13 12 13 13 11 11 11 12 13 12 11 11 10 10 10 10 8 7 6 6 7 6 7 7 7 10 8 4 3 2 5 8 6 4 3 2 1
19 17 15 15 13 13 14 12 13 13 12 12 13 13 12 11 11 11 11 11 10 9 7 5 4 4 4 5 5 4 4 2 3 0 2 5 5 8 8 7 4 2 1
19 16 13 12 13 13 12 13 13 13 13 13 15 15 13 13 11 10 9 8 7 7 6 6 5 5 5 6 6 5 5 2 4 3 3 6 4 9 7 6 6 4 3
20 15 13 11 9 10 10 12 13 13 13 14 15 16 14 13 11 11 9 7 6 7 9 8 7 8 8 7 8 7 5 1 6 5 8 8 10 11 8 7 6 5 4
16 18 15 12 12 10 9 12 12 12 13 12 12 14 12 6 8 6 6 6 7 8 11 12 11 11 11 11 12 14 8 3 9 6 8 7 12 13 10 9 8 7 6
19 15 13 13 12 12 9 10 7 7 6 5 4 4 6 3 5 3 6 10 11 11 11 10 12 11 7 9 10 13 10 12 7 12 12 11 16 17 15 12 11 10 9
16 15 15 13 12 11 10 8 7 4 4 3 2 5 1 6 2 6 6 10 9 9 12 9 13 8 11 6 9 9 11 11 10 13 16 16 16 19 18 17 16 14 13
18 16 15 14 13 12 9 9 7 6 5 3 3 3 2 4 4 5 5 11 9 8 11 10 9 11 10 9 9 12 12 13 15 11 14 18 17 21 18 16 16 17 16
19 17 16 15 14 13 14 9 8 7 5 3 3 4 1 1 4 5 6 4 3 6 6 7 7 8 10 10 12 13 14 15 14 13 14 17 19 21 19 17 15 16 17
18 17 16 15 13 13 12 12 9 7 6 6 4 5 5 2 5 4 4 6 4 5 6 7 9 9 10 11 11 11 12 12 13 18 18 17 18 20 19 18 18 17 16
18 17 17 16 14 14 13 11 9 7 6 6 6 7 5 3 6 4 5 3 5 6 10 9 12 10 11 11 12 13 13 12 12 14 15 16 18 21 19 19 19 20 20
17 18 18 16 16 15 13 11 10 9 8 6 6 6 5 4 4 2 5 4 6 6 7 9 11 12 13 13 15 14 14 13 12 13 13 13 12 13 17 20 20 22 23
19 18 19 18 17 17 16 13 12 11 9 8 7 8 7 5 3 3 4 5 5 5 6 9 11 12 14 13 15 16 14 14 12 10 11 11 12 11 12 15 20 18 20
20 19 19 18 18 17 15 15 12 10 10 9 9 8 7 6 6 6 5 6 5 4 5 8 10 12 12 14 15 15 16 10 8 7 11 11 11 11 14 13 15 18 21
20 20 20 20 20 18 16 14 13 12 11 11 11 12 12 10 9 9 7 6 6 6 10 10 11 12 12 12 15 16 14 9 7 9 13 9 11 8 13 15 16 14 13
23 22 21 21 21 21 17 16 15 13 12 12 12 13 13 12 12 11 10 8 8 7 9 10 12 10 10 11 10 14 13 12 7 17 8 13 8 15 14 13 19 19 17
26 25 25 24 23 22 20 17 16 16 16 14 16 16 15 15 14 13 11 9 10 9 10 13 9 10 12 10 12 7 9 12 20 5 12 11 17 16 17 18 18 19 21
28 26 26 26 26 24 24 20 21 17 18 16 14 13 13 14 14 12 11 11 10 10 13 7 8 18 13 11 10 9 12 14 17 20 17 19 20 19 20 20 19 20 20
28 28 27 28 28 27 26 25 23 22 17 16 14 15 17 15 15 15 16 14 17 15 12 15 16 18 14 10 10 11 12 14 16 19 26 27 24 20 20 21 20 22 20
30 29 29 31 32 30 31 27 29 25 21 18 19 18 16 15 18 21 19 17 20 14 17 17 17 16 14 15 14 12 13 14 17 19 22 24 27 31 25 24 22 23 24
Wind_Direction
139 137 128 123 125 124 120 113 105 101 101 104 108 110 112 113 108 96 89 85 92 94 89 89 94 100 101 94 96 98 97 94 93 87 74 77 94 98 110 107 98 88 90
133 132 134 132 128 126 117 114 110 108 98 99 102 106 108 106 97 91 90 86 83 87 96 99 104 110 99 96 96 97 99 92 81 83 75 61 68 100 114 102 119 80 92
126 122 135 137 135 127 121 114 111 110 103 100 100 99 99 95 98 95 88 76 81 87 105 102 92 102 99 100 94 91 93 93 88 78 78 108 1 68 105 111 114 93 87
125 130 131 135 132 127 120 114 112 110 105 104 100 101 98 98 91 85 70 86 102 87 98 105 101 97 96 97 93 83 82 84 88 65 38 86 66 20 84 88 76 81 90
133 132 143 132 128 123 117 115 111 104 102 98 99 95 96 106 97 87 83 89 91 93 98 102 107 97 90 83 75 68 75 71 74 72 41 60 49 346 45 109 66 73 82
134 139 133 131 125 119 113 109 104 104 96 100 105 108 110 106 97 88 79 83 85 93 101 95 96 93 85 66 64 59 65 83 67 85 26 2 126 12 36 82 136 154 81
136 137 131 131 125 122 117 115 112 107 106 101 103 105 106 101 93 92 86 78 73 73 81 85 83 71 65 52 49 38 54 80 57 62 59 91 321 18 25 45 35 33 75
143 139 130 132 129 125 123 120 118 112 107 100 99 98 100 97 89 84 83 80 75 72 69 64 49 30 8 4 3 3 25 74 346 178 3 219 334 6 18 19 14 358 338
145 147 137 132 137 131 126 124 122 116 114 104 98 94 92 85 77 72 69 67 65 58 46 31 18 7 0 354 351 336 334 28 93 356 11 269 301 333 346 1 3 345 323
154 153 149 145 135 132 125 124 123 121 108 101 91 80 70 59 53 42 50 43 48 44 25 23 16 4 359 2 359 349 342 76 17 303 274 267 293 306 334 333 326 337 320
157 160 164 156 145 150 149 129 118 113 108 96 80 69 60 54 27 33 10 7 11 15 20 12 12 10 16 3 356 359 344 330 310 302 285 272 301 293 305 317 318 303 303
164 166 164 165 160 152 154 139 142 119 78 110 104 96 67 102 69 62 26 16 14 4 344 357 358 7 8 357 328 325 338 311 297 291 325 305 295 296 288 290 298 299 286
169 168 175 170 168 157 169 155 160 144 158 148 129 115 176 105 20 23 350 18 353 4 350 336 334 4 333 304 311 301 302 296 293 290 268 284 291 303 290 281 279 285 287
174 175 180 178 179 173 177 171 182 177 178 154 221 152 92 45 8 347 19 357 12 348 359 1 342 345 328 316 297 305 295 302 288 296 294 295 294 303 299 286 276 273 276
181 183 184 187 189 184 176 189 187 189 204 212 258 256 241 319 322 340 1 15 12 355 346 351 345 341 337 337 327 316 310 302 292 283 283 295 298 297 301 293 281 276 272
187 189 192 194 197 193 190 186 202 204 220 234 249 259 267 272 284 329 339 347 340 339 336 346 348 349 347 336 329 320 313 309 303 304 289 281 288 292 298 301 288 277 276
192 194 198 199 202 205 202 215 213 216 247 249 263 249 245 273 284 29 320 359 338 329 344 345 341 338 341 334 332 326 326 314 307 298 295 292 293 298 299 293 296 288 274
196 197 199 205 208 210 212 216 215 231 238 245 239 244 256 273 293 309 297 320 294 3 344 346 347 341 338 337 330 329 324 316 308 305 307 298 290 288 301 295 296 290 288
198 201 202 203 205 212 215 217 225 231 236 220 231 239 238 252 248 279 289 305 334 354 345 344 338 339 334 336 332 328 326 323 321 323 314 308 300 300 293 295 294 301 303
198 201 202 204 206 208 212 223 221 232 229 225 233 240 236 245 241 256 271 283 315 321 324 306 331 334 338 331 331 337 324 320 326 334 331 317 309 297 303 291 288 293 295
200 202 202 203 210 204 209 213 219 220 224 229 233 234 233 237 237 249 248 271 297 305 296 338 328 333 341 331 334 333 337 316 326 322 320 320 314 318 308 305 302 293 285
203 204 205 204 207 210 208 209 211 213 224 233 234 237 240 236 242 249 250 254 277 288 305 292 316 334 337 324 328 331 335 338 334 325 309 319 314 313 311 299 297 299 294
205 206 207 207 208 210 197 210 211 210 224 227 235 236 239 240 238 241 242 261 269 300 312 307 309 321 325 344 323 328 337 325 322 328 317 304 309 307 307 304 297 300 295
208 208 207 210 208 214 206 208 214 217 222 230 235 239 238 236 234 235 238 237 260 271 283 300 299 318 328 324 322 313 301 299 312 314 311 308 312 309 307 305 300 300 297
209 209 210 213 215 210 220 209 219 220 226 224 226 230 232 233 232 223 229 248 265 266 272 296 309 312 318 302 306 305 307 307 304 304 309 314 311 310 308 304 300 298 300
210 211 211 216 220 219 222 222 214 219 218 218 224 227 230 234 242 246 238 248 254 269 279 294 305 311 307 305 310 312 309 311 311 310 308 307 306 310 310 307 303 300 296